| time (UTC) | temp F | wind direction | speed MPH | gust MPH | rain 1hr in | rain 24hr in | rain mn in | humidity % | barometer mb |
| 20260507020024 | 46 | 254 | 0.0 | 0.0 | 0.00 | 0.12 | 0.05 | 76 | 1014.8 |
| 20260507014534 | 47 | 255 | 0.0 | 0.0 | 0.00 | 0.13 | 0.05 | 75 | 1014.8 |
| 20260507013021 | 48 | 256 | 0.0 | 0.0 | 0.00 | 0.13 | 0.05 | 73 | 1014.8 |
| 20260507011534 | 48 | 360 | 0.0 | 0.0 | 0.00 | 0.13 | 0.05 | 72 | 1014.7 |
| 20260507010020 | 49 | 360 | 0.0 | 0.0 | 0.00 | 0.13 | 0.05 | 70 | 1014.5 |
| 20260507004519 | 50 | 256 | 0.0 | 0.0 | 0.00 | 0.15 | 0.05 | 68 | 1014.4 |
| 20260507003019 | 52 | 281 | 0.0 | 0.0 | 0.00 | 0.15 | 0.05 | 65 | 1014.1 |
| 20260507001518 | 53 | 360 | 0.0 | 0.0 | 0.00 | 0.15 | 0.05 | 63 | 1013.8 |
| 20260507000017 | 53 | 360 | 0.0 | 0.0 | 0.00 | 0.15 | 0.05 | 62 | 1013.6 |
| 20260506234516 | 52 | 246 | 0.0 | 0.0 | 0.00 | 0.19 | 0.05 | 61 | 1013.8 |
| 20260506233016 | 53 | 360 | 0.0 | 0.0 | 0.00 | 0.19 | 0.05 | 58 | 1013.9 |
| 20260506231516 | 53 | 360 | 0.0 | 0.0 | 0.00 | 0.19 | 0.05 | 59 | 1014.0 |
| 20260506230016 | 54 | 360 | 0.0 | 0.0 | 0.00 | 0.20 | 0.05 | 57 | 1013.9 |
| 20260506224516 | 54 | 360 | 0.0 | 0.0 | 0.00 | 0.20 | 0.05 | 61 | 1014.0 |
| 20260506223013 | 54 | 360 | 0.0 | 0.0 | 0.00 | 0.20 | 0.05 | 57 | 1014.0 |
| 20260506221514 | 54 | 360 | 0.0 | 0.0 | 0.00 | 0.20 | 0.05 | 58 | 1013.9 |
| 20260506220012 | 54 | 360 | 0.0 | 0.0 | 0.00 | 0.23 | 0.05 | 60 | 1013.9 |
| 20260506214517 | 54 | 238 | 0.0 | 0.0 | 0.00 | 0.23 | 0.05 | 62 | 1013.7 |
| 20260506213011 | 54 | 360 | 0.0 | 0.0 | 0.00 | 0.23 | 0.05 | 61 | 1013.7 |
| 20260506211510 | 54 | 360 | 0.0 | 0.0 | 0.00 | 0.23 | 0.05 | 59 | 1013.8 |
| 20260506210012 | 56 | 360 | 0.0 | 0.0 | 0.00 | 0.26 | 0.05 | 65 | 1013.6 |
| 20260506204509 | 55 | 292 | 0.0 | 0.0 | 0.00 | 0.26 | 0.05 | 56 | 1013.8 |
| 20260506203011 | 55 | 360 | 0.0 | 0.0 | 0.00 | 0.26 | 0.05 | 64 | 1014.1 |
| 20260506201504 | 55 | 360 | 0.0 | 0.0 | 0.00 | 0.26 | 0.05 | 64 | 1014.1 |
| 20260506200003 | 54 | 360 | 0.0 | 0.0 | 0.00 | 0.27 | 0.05 | 61 | 1014.0 |
| 20260506194603 | 54 | 360 | 0.0 | 0.0 | 0.00 | 0.27 | 0.05 | 62 | 1014.0 |
| 20260506193059 | 53 | 219 | 0.0 | 0.0 | 0.00 | 0.27 | 0.05 | 63 | 1014.2 |
| 20260506191559 | 53 | 360 | 0.0 | 0.0 | 0.00 | 0.27 | 0.05 | 63 | 1014.3 |
| 20260506190059 | 53 | 360 | 0.0 | 0.0 | 0.00 | 0.27 | 0.05 | 63 | 1014.2 |
| 20260506184557 | 53 | 360 | 0.0 | 0.0 | 0.00 | 0.30 | 0.05 | 64 | 1014.2 |
| 20260506183057 | 53 | 360 | 0.0 | 0.0 | 0.00 | 0.30 | 0.05 | 69 | 1014.2 |
| 20260506181553 | 53 | 269 | 0.0 | 0.0 | 0.00 | 0.30 | 0.05 | 66 | 1014.2 |
| 20260506180053 | 53 | 360 | 0.0 | 0.0 | 0.00 | 0.30 | 0.05 | 68 | 1014.3 |
| 20260506174559 | 52 | 360 | 0.0 | 0.0 | 0.00 | 0.40 | 0.05 | 64 | 1014.5 |
| 20260506173111 | 53 | 223 | 0.0 | 0.0 | 0.00 | 0.40 | 0.05 | 64 | 1014.3 |
| 20260506171551 | 53 | 347 | 0.0 | 0.0 | 0.00 | 0.40 | 0.05 | 65 | 1014.2 |
| 20260506170050 | 53 | 360 | 0.0 | 0.0 | 0.00 | 0.40 | 0.05 | 66 | 1014.1 |
| 20260506164549 | 54 | 239 | 0.0 | 0.0 | 0.00 | 0.43 | 0.05 | 65 | 1014.1 |
| 20260506163052 | 53 | 360 | 0.0 | 0.0 | 0.00 | 0.43 | 0.05 | 63 | 1014.2 |
| 20260506161547 | 53 | 304 | 0.0 | 0.0 | 0.00 | 0.43 | 0.05 | 64 | 1014.0 |
| 20260506160046 | 52 | 346 | 0.0 | 0.0 | 0.00 | 0.43 | 0.05 | 67 | 1014.2 |
| 20260506154544 | 52 | 304 | 0.0 | 0.0 | 0.00 | 0.43 | 0.05 | 64 | 1014.2 |
| 20260506153045 | 52 | 360 | 0.0 | 0.0 | 0.00 | 0.43 | 0.05 | 67 | 1014.1 |
| 20260506151540 | 52 | 314 | 0.0 | 0.0 | 0.00 | 0.43 | 0.05 | 66 | 1014.1 |
| 20260506150048 | 53 | 40 | 0.0 | 0.0 | 0.00 | 0.43 | 0.05 | 71 | 1014.2 |
| 20260506144558 | 53 | 334 | 0.0 | 0.0 | 0.00 | 0.43 | 0.05 | 68 | 1014.2 |
| 20260506143046 | 54 | 360 | 0.0 | 0.0 | 0.00 | 0.43 | 0.05 | 67 | 1014.0 |
| 20260506141533 | 52 | 72 | 0.0 | 0.0 | 0.00 | 0.43 | 0.05 | 70 | 1013.9 |
| 20260506140043 | 51 | 293 | 0.0 | 0.0 | 0.00 | 0.43 | 0.05 | 70 | 1013.8 |
| 20260506134532 | 51 | 5 | 0.0 | 0.0 | 0.00 | 0.43 | 0.05 | 72 | 1013.5 |
| 20260506133023 | 50 | 321 | 0.0 | 0.0 | 0.00 | 0.43 | 0.05 | 73 | 1013.2 |
| 20260506131532 | 49 | 44 | 0.0 | 0.0 | 0.00 | 0.43 | 0.05 | 78 | 1013.1 |
| 20260506130016 | 48 | 42 | 0.0 | 0.0 | 0.00 | 0.43 | 0.05 | 87 | 1013.0 |
| 20260506124509 | 47 | 13 | 0.0 | 0.0 | 0.00 | 0.43 | 0.05 | 90 | 1012.9 |
| 20260506123005 | 46 | 330 | 0.0 | 0.0 | 0.00 | 0.43 | 0.05 | 91 | 1012.8 |
| 20260506121602 | 46 | 333 | 0.0 | 0.0 | 0.00 | 0.43 | 0.05 | 91 | 1012.5 |
| 20260506120104 | 46 | 327 | 0.0 | 0.0 | 0.00 | 0.43 | 0.05 | 91 | 1012.4 |
| 20260506114555 | 45 | 313 | 0.0 | 0.0 | 0.00 | 0.43 | 0.05 | 91 | 1012.1 |
| 20260506113054 | 44 | 336 | 0.0 | 0.0 | 0.00 | 0.43 | 0.05 | 91 | 1012.0 |
| 20260506111548 | 44 | 22 | 0.0 | 0.0 | 0.00 | 0.43 | 0.05 | 91 | 1011.5 |
| 20260506110045 | 44 | 109 | 0.0 | 0.0 | 0.00 | 0.43 | 0.05 | 91 | 1011.2 |
| 20260506104553 | 44 | 208 | 0.0 | 0.0 | 0.00 | 0.43 | 0.05 | 91 | 1011.3 |
| 20260506103041 | 45 | 360 | 0.0 | 0.0 | 0.00 | 0.43 | 0.05 | 91 | 1011.0 |
| 20260506101541 | 45 | 337 | 0.0 | 0.0 | 0.00 | 0.43 | 0.05 | 91 | 1010.8 |
| 20260506100048 | 45 | 337 | 0.0 | 0.0 | 0.00 | 0.43 | 0.05 | 91 | 1010.5 |
| 20260506094541 | 45 | 337 | 0.0 | 0.0 | 0.00 | 0.43 | 0.05 | 91 | 1010.7 |
| 20260506093038 | 45 | 338 | 0.0 | 0.0 | 0.00 | 0.43 | 0.05 | 91 | 1010.4 |
| 20260506091538 | 45 | 340 | 0.0 | 0.0 | 0.00 | 0.43 | 0.05 | 91 | 1010.2 |
| 20260506090041 | 45 | 341 | 0.0 | 0.0 | 0.00 | 0.43 | 0.05 | 91 | 1010.4 |
| 20260506084539 | 45 | 341 | 0.0 | 0.0 | 0.00 | 0.43 | 0.05 | 91 | 1010.2 |
| 20260506083036 | 45 | 341 | 0.0 | 0.0 | 0.00 | 0.43 | 0.05 | 91 | 1010.2 |
| 20260506081534 | 45 | 340 | 0.0 | 0.0 | 0.00 | 0.43 | 0.05 | 91 | 1010.1 |
| 20260506073033 | 44 | 341 | 0.0 | 0.0 | 0.00 | 0.43 | 0.05 | 91 | 1009.6 |
| 20260506071532 | 44 | 340 | 0.0 | 0.0 | 0.00 | 0.43 | 0.05 | 91 | 1009.3 |
| 20260506061524 | 45 | 341 | 0.0 | 0.0 | 0.02 | 0.50 | 0.05 | 90 | 1009.7 |
| 20260506044600 | 47 | 320 | 0.0 | 0.0 | 0.02 | 0.66 | 0.01 | 90 | 1010.5 |
| 20260506043105 | 47 | 323 | 0.0 | 0.0 | 0.02 | 0.66 | 0.01 | 90 | 1010.3 |
| 20260506041551 | 47 | 323 | 0.0 | 0.0 | 0.02 | 0.66 | 0.01 | 90 | 1010.1 |
| 20260506040047 | 47 | 323 | 0.0 | 0.0 | 0.03 | 0.65 | 0.00 | 90 | 1009.7 |
| 20260506034606 | 47 | 323 | 0.0 | 0.0 | 0.03 | 0.64 | 0.64 | 90 | 1009.7 |
| 20260506033046 | 47 | 323 | 0.0 | 0.0 | 0.04 | 0.64 | 0.64 | 90 | 1010.0 |
| 20260506031551 | 47 | 323 | 0.0 | 0.0 | 0.04 | 0.63 | 0.63 | 90 | 1009.6 |
| 20260506030044 | 47 | 323 | 0.0 | 0.0 | 0.04 | 0.62 | 0.62 | 90 | 1009.4 |
| 20260506024550 | 47 | 323 | 0.0 | 0.0 | 0.03 | 0.61 | 0.61 | 90 | 1009.3 |
| 20260506023051 | 47 | 323 | 0.0 | 0.0 | 0.02 | 0.60 | 0.60 | 90 | 1009.7 |
| 20260506021540 | 46 | 323 | 0.0 | 0.0 | 0.02 | 0.59 | 0.59 | 90 | 1009.5 |